Simultaneous Nadir Overpasses (SNOs) Predictions

Prediction of SNOs between AQUA and METOP-B Satellite Orbit:

Table of predicted SNOs for the next 14.0 days since TLE Epoch: 5/7/2022
Index Date (AQUA) Time (AQUA) Lat,Lon (AQUA) SZA (AQUA ) Date (METOP-B) Time (METOP-B) Lat,Lon (METOP-B) SZA (METOP-B ) Distance(km) Time Diff (sec)
1 05/09/2022 08:36:56 73.87, 45.36 56.44 05/09/2022 08:35:43 73.80, 45.21 56.39 8.36 73
2 05/09/2022 09:26:23 -73.94,-147.16 123.49 05/09/2022 09:26:22 -73.93,-147.17 123.51 1.42 1
3 05/09/2022 10:15:51 73.99, 20.35 56.56 05/09/2022 10:17:01 73.98, 20.29 56.54 2.54 70
4 05/12/2022 04:10:48 73.89, 111.85 55.74 05/12/2022 04:10:02 73.89, 111.83 55.75 0.71 46
5 05/12/2022 05:00:15 -73.96, -80.66 124.20 05/12/2022 05:00:42 -73.97, -80.65 124.19 1.02 27
6 05/14/2022 22:55:01 -73.37, 11.89 125.49 05/14/2022 22:53:53 -73.33, 9.62 125.46 72.45 68
7 05/14/2022 23:44:38 73.90, 178.38 55.06 05/14/2022 23:44:21 73.92, 178.32 55.09 2.95 17
8 05/15/2022 00:34:06 -74.02, -14.25 124.83 05/15/2022 00:35:01 -74.01, -14.15 124.85 3.48 55
9 05/17/2022 18:29:01 -73.89, 77.33 125.60 05/17/2022 18:28:02 -73.91, 77.37 125.57 2.88 59
10 05/17/2022 19:18:29 73.95,-115.18 54.47 05/17/2022 19:18:41 73.95,-115.20 54.46 0.93 12
11 05/17/2022 20:08:04 -74.43, 51.36 125.04 05/17/2022 20:09:12 -74.47, 53.45 125.05 62.71 68
12 05/20/2022 14:02:51 -73.92, 143.82 126.17 05/20/2022 14:02:22 -73.93, 143.83 126.15 1.53 29
13 05/20/2022 14:52:19 73.99, -48.70 53.90 05/20/2022 14:53:01 73.97, -48.75 53.88 2.96 42



Historial Predications of SNOs between AQUA and METOP-B
